{"data":{"norad_id":64490,"intl_designator":"2025-133U","name":"STARLINK-34505","alt_names":[],"object_type":"PAYLOAD","status":"ACTIVE","operator":null,"country":"US","launch_date":"2025-06-23","launch_site_code":"AFETR","launch_vehicle":null,"mission":null,"orbit_class":"UNKNOWN","rcs_meters":null,"size_class":null,"mass_kg":null,"dimensions":null,"purposes":["comms"],"wikipedia_slug":null,"has_3d_model":false,"image_url":null,"decayed_at":null,"tle_current":{"epoch":"2026-09-20T13:49:26.773248Z","epoch_age_seconds":124999,"freshness":"FRESH","line1":"1 64490U 25133U   26263.57600432  .00018039  00000+0  54360-3 0  9994","line2":"2 64490  53.1579 291.0534 0001011  80.9498 279.1619 15.34407414 71017","mean_motion":15.34407414,"eccentricity":0.0001011,"inclination_deg":53.1579,"raan_deg":291.0534,"arg_perigee_deg":80.9498,"mean_anomaly_deg":279.1619,"bstar":0.0005436,"rev_number":7101,"period_min":93.847304624663,"perigee_km":461.98959760495,"apogee_km":463.37281104586,"semimajor_km":6840.8182043254,"source":"CELESTRAK","updated_at":"2026-09-21T09:00:35.361874Z"}}}